• In Uzbekistan
  • List of Countries
  • For 7 days
  • Water Temperature
  • Satellite Maps
  • Weather Map
  • Weather Widgets
  • user-avatar
    Login

    Hourly Weather Sydney

    Today, 20 June, Wednesday

    Time Temperature Precipitation Wind Pressure Humidity
    00:00 +10°C° 0.2 mm 7 mps 768 mmHg 88%
    01:00 +10°C° 0.2 mm 7 mps 768 mmHg 87%
    02:00 +10°C° 0.2 mm 6 mps 768 mmHg 88%
    03:00 +10°C° 0.2 mm 6 mps 768 mmHg 88%
    04:00 +10°C° 0 mm 6 mps 768 mmHg 88%
    05:00 +10°C° 0.1 mm 6 mps 769 mmHg 89%
    06:00 +10°C° 0.1 mm 6 mps 769 mmHg 90%
    07:00 +9°C° 0.1 mm 5 mps 769 mmHg 91%
    08:00 +12°C° 0 mm 5 mps 769 mmHg 83%
    09:00 +13°C° 0 mm 5 mps 769 mmHg 75%
    10:00 +17°C° 0 mm 4 mps 769 mmHg 67%
    11:00 +17°C° 0 mm 4 mps 769 mmHg 62%
    12:00 +17°C° 0 mm 5 mps 768 mmHg 58%
    13:00 +19°C° 0 mm 5 mps 768 mmHg 54%
    14:00 +17°C° 0.1 mm 5 mps 768 mmHg 58%
    15:00 +17°C° 0.1 mm 5 mps 768 mmHg 61%
    16:00 +16°C° 0 mm 5 mps 768 mmHg 66%
    17:00 +14°C° 0.1 mm 4 mps 769 mmHg 71%
    18:00 +13°C° 0.1 mm 4 mps 769 mmHg 77%
    19:00 +12°C° 0.1 mm 4 mps 769 mmHg 83%
    20:00 +12°C° 0.1 mm 4 mps 769 mmHg 84%
    21:00 +11°C° 0.1 mm 4 mps 769 mmHg 86%
    22:00 +11°C° 0.1 mm 3 mps 770 mmHg 88%
    23:00 +10°C° 0.1 mm 3 mps 769 mmHg 88%

    Tomorrow, 21 June, Thursday

    Time Temperature Precipitation Wind Pressure Humidity
    00:00 +10°C° 0.1 mm 3 mps 769 mmHg 89%
    01:00 +10°C° 0.1 mm 3 mps 769 mmHg 89%
    02:00 +10°C° 0.1 mm 3 mps 769 mmHg 88%
    03:00 +10°C° 0.1 mm 3 mps 769 mmHg 87%
    04:00 +10°C° 0.1 mm 3 mps 769 mmHg 87%
    05:00 +10°C° 0.1 mm 3 mps 769 mmHg 87%
    06:00 +10°C° 0.1 mm 3 mps 770 mmHg 87%
    07:00 +9°C° 0.1 mm 3 mps 770 mmHg 87%
    08:00 +11°C° 0.1 mm 3 mps 770 mmHg 80%
    09:00 +13°C° 0.1 mm 3 mps 770 mmHg 74%
    10:00 +14°C° 0.1 mm 3 mps 770 mmHg 67%
    11:00 +17°C° 0.1 mm 2 mps 770 mmHg 64%
    12:00 +18°C° 0.1 mm 2 mps 769 mmHg 60%
    13:00 +19°C° 0.1 mm 2 mps 769 mmHg 56%
    14:00 +18°C° 0.1 mm 2 mps 769 mmHg 59%
    15:00 +18°C° 0.1 mm 2 mps 769 mmHg 62%
    16:00 +17°C° 0.1 mm 2 mps 769 mmHg 64%
    17:00 +16°C° 0 mm 2 mps 769 mmHg 73%
    18:00 +14°C° 0 mm 2 mps 769 mmHg 81%
    19:00 +13°C° 0 mm 1 mps 770 mmHg 90%
    20:00 +12°C° 0 mm 1 mps 770 mmHg 90%
    21:00 +12°C° 0 mm 1 mps 770 mmHg 91%
    22:00 +12°C° 0 mm 1 mps 770 mmHg 92%
    23:00 +11°C° 0 mm 1 mps 770 mmHg 93%

    Day after tomorrow, 22 June, Friday

    Time Temperature Precipitation Wind Pressure Humidity
    00:00 +11°C° 0 mm 1 mps 770 mmHg 94%
    01:00 +10°C° 0 mm 2 mps 770 mmHg 95%
    02:00 +9°C° 0 mm 2 mps 770 mmHg 95%
    03:00 +9°C° 0 mm 2 mps 770 mmHg 95%
    04:00 +9°C° 0 mm 2 mps 770 mmHg 95%
    05:00 +8°C° 0 mm 2 mps 770 mmHg 95%
    06:00 +8°C° 0 mm 2 mps 770 mmHg 94%
    07:00 +8°C° 0 mm 2 mps 770 mmHg 94%
    08:00 +10°C° 0 mm 2 mps 770 mmHg 84%
    09:00 +13°C° 0 mm 2 mps 770 mmHg 74%
    10:00 +16°C° 0 mm 2 mps 770 mmHg 64%
    11:00 +17°C° 0 mm 2 mps 770 mmHg 58%
    12:00 +19°C° 0 mm 1 mps 769 mmHg 51%
    13:00 +21°C° 0 mm 1 mps 768 mmHg 45%
    14:00 +20°C° 0 mm 1 mps 768 mmHg 47%
    15:00 +19°C° 0 mm 2 mps 768 mmHg 49%
    16:00 +18°C° 0 mm 2 mps 768 mmHg 51%
    17:00 +16°C° 0 mm 2 mps 768 mmHg 59%
    18:00 +14°C° 0 mm 3 mps 768 mmHg 68%
    19:00 +12°C° 0 mm 3 mps 769 mmHg 76%
    20:00 +11°C° 0 mm 3 mps 769 mmHg 79%
    21:00 +11°C° 0 mm 3 mps 769 mmHg 81%
    22:00 +10°C° 0 mm 3 mps 769 mmHg 83%
    23:00 +10°C° 0 mm 3 mps 769 mmHg 83%

    23 June, Saturday

    Time Temperature Precipitation Wind Pressure Humidity
    00:00 +9°C° 0 mm 3 mps 769 mmHg 82%
    01:00 +9°C° 0 mm 3 mps 768 mmHg 82%
    02:00 +8°C° 0 mm 3 mps 768 mmHg 79%
    03:00 +8°C° 0 mm 3 mps 768 mmHg 76%
    04:00 +8°C° 0 mm 2 mps 768 mmHg 74%
    05:00 +7°C° 0 mm 2 mps 768 mmHg 71%
    06:00 +7°C° 0 mm 2 mps 768 mmHg 69%
    07:00 +7°C° 0 mm 2 mps 768 mmHg 66%
    08:00 +9°C° 0 mm 2 mps 768 mmHg 58%
    09:00 +13°C° 0 mm 2 mps 768 mmHg 50%
    10:00 +15°C° 0 mm 2 mps 768 mmHg 43%
    11:00 +17°C° 0 mm 2 mps 768 mmHg 38%
    12:00 +18°C° 0 mm 2 mps 767 mmHg 34%
    13:00 +21°C° 0 mm 1 mps 766 mmHg 30%
    14:00 +20°C° 0 mm 1 mps 766 mmHg 33%
    15:00 +20°C° 0 mm 1 mps 766 mmHg 36%
    16:00 +19°C° 0 mm 1 mps 766 mmHg 39%
    17:00 +16°C° 0 mm 1 mps 767 mmHg 45%
    18:00 +14°C° 0 mm 1 mps 767 mmHg 51%
    19:00 +12°C° 0 mm 1 mps 768 mmHg 56%
    20:00 +12°C° 0 mm 2 mps 768 mmHg 59%
    21:00 +10°C° 0 mm 2 mps 769 mmHg 62%
    22:00 +9°C° 0 mm 3 mps 769 mmHg 64%
    23:00 +9°C° 0 mm 3 mps 769 mmHg 65%

    24 June, Sunday

    Time Temperature Precipitation Wind Pressure Humidity
    00:00 +8°C° 0 mm 3 mps 769 mmHg 67%
    01:00 +7°C° 0 mm 3 mps 769 mmHg 68%
    02:00 +7°C° 0 mm 3 mps 769 mmHg 68%
    03:00 +7°C° 0 mm 3 mps 769 mmHg 69%
    04:00 +7°C° 0 mm 3 mps 769 mmHg 69%
    05:00 +5°C° 0 mm 3 mps 769 mmHg 69%
    06:00 +5°C° 0 mm 3 mps 770 mmHg 68%
    07:00 +5°C° 0 mm 3 mps 770 mmHg 68%
    08:00 +8°C° 0 mm 3 mps 770 mmHg 61%
    09:00 +11°C° 0 mm 3 mps 770 mmHg 54%
    10:00 +13°C° 0 mm 3 mps 770 mmHg 47%
    11:00 +14°C° 0 mm 3 mps 770 mmHg 46%
    12:00 +17°C° 0 mm 4 mps 769 mmHg 46%
    13:00 +18°C° 0 mm 4 mps 769 mmHg 46%
    14:00 +17°C° 0 mm 4 mps 769 mmHg 50%
    15:00 +17°C° 0 mm 4 mps 769 mmHg 55%
    16:00 +15°C° 0 mm 5 mps 768 mmHg 59%
    17:00 +14°C° 0.1 mm 4 mps 769 mmHg 68%
    18:00 +12°C° 0.1 mm 4 mps 769 mmHg 77%
    19:00 +10°C° 0.1 mm 4 mps 770 mmHg 85%
    20:00 +10°C° 0 mm 4 mps 770 mmHg 87%
    21:00 +10°C° 0 mm 4 mps 770 mmHg 88%
    22:00 +9°C° 0 mm 3 mps 771 mmHg 89%
    23:00 +9°C° 0 mm 3 mps 771 mmHg 89%

    25 June, Monday

    Time Temperature Precipitation Wind Pressure Humidity
    00:00 +9°C° 0 mm 3 mps 770 mmHg 90%
    01:00 +7°C° 0 mm 4 mps 770 mmHg 91%
    02:00 +7°C° 0.1 mm 4 mps 770 mmHg 91%
    03:00 +7°C° 0.1 mm 4 mps 770 mmHg 91%
    04:00 +7°C° 0.1 mm 4 mps 770 mmHg 91%
    05:00 +7°C° 0.1 mm 4 mps 771 mmHg 91%
    06:00 +6°C° 0.1 mm 4 mps 771 mmHg 91%
    07:00 +6°C° 0.1 mm 4 mps 772 mmHg 91%
    08:00 +8°C° 0.1 mm 4 mps 772 mmHg 83%
    09:00 +11°C° 0.1 mm 4 mps 772 mmHg 75%
    10:00 +13°C° 0.1 mm 4 mps 772 mmHg 66%
    11:00 +14°C° 0 mm 4 mps 772 mmHg 62%
    12:00 +15°C° 0 mm 4 mps 771 mmHg 58%
    13:00 +17°C° 0 mm 4 mps 771 mmHg 54%
    14:00 +17°C° 0 mm 4 mps 771 mmHg 56%
    15:00 +15°C° 0 mm 4 mps 771 mmHg 58%
    16:00 +15°C° 0 mm 4 mps 771 mmHg 60%
    17:00 +13°C° 0 mm 4 mps 771 mmHg 67%
    18:00 +12°C° 0 mm 3 mps 772 mmHg 74%
    19:00 +10°C° 0 mm 3 mps 772 mmHg 81%
    20:00 +10°C° 0 mm 3 mps 772 mmHg 82%
    21:00 +9°C° 0 mm 3 mps 773 mmHg 83%
    22:00 +9°C° 0 mm 3 mps 773 mmHg 84%
    23:00 +9°C° 0 mm 3 mps 773 mmHg 86%
    Show more